sat.trackr.live / text

‹ back to catalog

STARLINK-2461

NORAD 48428 · 2021-040A

PAYLOAD ACTIVE UNKNOWN

§ Identity

Operator
Country
US
Launch date
2021-05-09
Launch site
AFETR
Launch vehicle
Mass (kg)
RCS (m²)

Purposes: comms

External: N2YO · Heavens-Above · Gunter

§ Orbital elements

Epoch: 2026-09-12T18:13:03.463968Z

Period
94.01 min
Inclination
53.1613°
Eccentricity
0.0001415
Mean motion
15.31699105 rev/d
Perigee alt
469.8 km
Apogee alt
471.7 km
Semi-major
6,848.9 km
B*
-1.7780e-4
RAAN
28.1528°
Arg perigee
59.1686°
Mean anomaly
300.9455°
Rev number
29,534

§ Raw data

STARLINK-24611 48428U 21040A   26255.75906787 -.00005878  00000+0 -17780-3 0  99972 48428  53.1613  28.1528 0001415  59.1686 300.9455 15.31699105295348

JSON: /api/v1/satellites/48428 · /tle

For live sub-satellite position, see the globe view (requires WebGL).

§ Visibility from observer

Set your observer location to see the next 7 days of passes ≥ 10°. The values pass through the URL so the page stays shareable.

No JS? Fill the form by hand. The geolocation button needs JavaScript.